This is the latest recevied weather packets stored in our database for station/object KG4GJX. If no packets are shown the sender has not sent any weather packets the latest 10 day(s).
| Time | Temp. | Humidity | Pressure | Rain* | Wind** | Luminosity | Snow |
|---|---|---|---|---|---|---|---|
| 1777645281 | 15.56° C | 68% | 1014.5 hPa | 0 mm | - | - | - |
| 1777644618 | 15° C | 72% | 1014.5 hPa | 0 mm | - | - | - |
| 1777643956 | 14.44° C | 69% | 1014.5 hPa | 0 mm | - | - | - |
| 1777643293 | 14.44° C | 73% | 1014.2 hPa | 0 mm | - | - | - |
| 1777642631 | 13.89° C | 72% | 1014.2 hPa | 0 mm | - | - | - |
| 1777641969 | 13.33° C | 75% | 1014.2 hPa | 0 mm | - | - | - |
| 1777641306 | 12.78° C | 75% | 1014.5 hPa | 0 mm | - | - | - |
| 1777640644 | 12.22° C | 80% | 1014.5 hPa | 0 mm | - | - | - |
| 1777639981 | 11.67° C | 84% | 1014.5 hPa | 0 mm | - | - | - |
| 1777639318 | 11.11° C | 82% | 1014.2 hPa | 0 mm | - | - | - |
| 1777638656 | 11.11° C | 85% | 1014.5 hPa | 0 mm | - | - | - |
| 1777637993 | 11.11° C | 87% | 1014.2 hPa | 0 mm | - | - | - |
| 1777637331 | 10.56° C | 90% | 1013.8 hPa | 0 mm | - | - | - |
| 1777636669 | 10.56° C | 90% | 1013.8 hPa | 0 mm | - | - | - |
| 1777636007 | 10° C | 90% | 1013.5 hPa | 0 mm | - | - | - |
| 1777635344 | 10° C | 90% | 1013.5 hPa | 0 mm | - | - | - |
| 1777634682 | 9.44° C | 91% | 1013.5 hPa | 0 mm | - | - | - |
| 1777634020 | 9.44° C | 93% | 1013.5 hPa | 0 mm | - | - | - |
| 1777633357 | 9.44° C | 94% | 1013.5 hPa | 0 mm | - | - | - |
| 1777632695 | 9.44° C | 91% | 1013.5 hPa | 0 mm | - | - | - |
| 1777632032 | 10° C | 90% | 1013.5 hPa | 0 mm | - | - | - |
| 1777631370 | 10° C | 90% | 1013.2 hPa | 0 mm | - | - | - |
| 1777630708 | 10° C | 89% | 1013.2 hPa | 0 mm | - | - | - |
| 1777630045 | 10° C | 90% | 1013.2 hPa | 0 mm | - | - | - |
| 1777629383 | 10° C | 91% | 1013.2 hPa | 0 mm | - | - | - |
* Rain latest hour (hover to see other rain measurements)
** Current wind speed in m/s (hover to see current wind gust speed)